{"data":{"norad_id":63909,"intl_designator":"2025-095V","name":"STARLINK-34066","alt_names":[],"object_type":"PAYLOAD","status":"ACTIVE","operator":null,"country":"US","launch_date":"2025-05-10","launch_site_code":"AFETR","launch_vehicle":null,"mission":null,"orbit_class":"UNKNOWN","rcs_meters":null,"size_class":null,"mass_kg":null,"dimensions":null,"purposes":["comms"],"wikipedia_slug":null,"has_3d_model":false,"image_url":null,"decayed_at":null,"tle_current":{"epoch":"2026-05-24T21:54:32.192640Z","epoch_age_seconds":72804,"freshness":"FRESH","line1":"1 63909U 25095V   26144.91287260  .00017592  00000+0  64708-3 0  9991","line2":"2 63909  42.9968 105.8796 0000455 294.8106  65.2698 15.27589130 59435","mean_motion":15.2758913,"eccentricity":4.55e-5,"inclination_deg":42.9968,"raan_deg":105.8796,"arg_perigee_deg":294.8106,"mean_anomaly_deg":65.2698,"bstar":0.00064708,"rev_number":5943,"period_min":94.266185305993,"perigee_km":482.70957494784,"apogee_km":483.33394039479,"semimajor_km":6861.1587576713,"source":"CELESTRAK","updated_at":"2026-05-25T13:38:20.178978Z"}}}